SL212X ZYCH-ZYCH

Flight info

Callsign SL212X
Flight time 0h 12m
Altitude 35100
Route VFR
Aircraft A359/L-SDE2E3GHIJ1J3J4J5LM1ORWXYZ/LB1D1

Departure

Time 2026-04-25 16:48
Airport Changhai Dachangshandao Airport (ZYCH)

Arrival

Time 2026-04-25 17:00
Airport Changhai Dachangshandao Airport (ZYCH)
Time Latitude Longitude Altitude Speed Heading
2026-04-25 16:36 39.26725 122.66508 79 ft 0 kts 299°
2026-04-25 16:41 39.26725 122.66509 77 ft 0 kts 300°
2026-04-25 16:44 39.26724 122.66499 73 ft 0 kts 251°
2026-04-25 16:44 39.26711 122.66495 73 ft 0 kts 173°
2026-04-25 16:45 39.26712 122.66495 73 ft 1 kts 174°
2026-04-25 16:45 39.26722 122.66494 74 ft 0 kts 153°
2026-04-25 16:46 39.26720 122.66495 72 ft 2 kts 151°
2026-04-25 16:46 39.26695 122.66554 78 ft 15 kts 106°
2026-04-25 16:46 39.26758 122.66633 65 ft 22 kts 349°
2026-04-25 16:46 39.26875 122.66590 66 ft 29 kts 343°
2026-04-25 16:47 39.26963 122.66528 59 ft 5 kts 177°
2026-04-25 16:47 39.26937 122.66548 61 ft 4 kts 160°
2026-04-25 16:47 39.26765 122.66624 73 ft 67 kts 161°
2026-04-25 16:47 39.26057 122.66960 203 ft 141 kts 161°
2026-04-25 16:48 39.24927 122.67489 561 ft 203 kts 163°
2026-04-25 16:48 39.23577 122.68201 965 ft 201 kts 155°
2026-04-25 16:48 39.22663 122.69460 1299 ft 193 kts 116°
2026-04-25 16:48 39.22732 122.71186 1490 ft 196 kts 66°
2026-04-25 16:49 39.23640 122.72458 1683 ft 192 kts 24°
2026-04-25 16:49 39.24884 122.73040 1770 ft 188 kts 358°
2026-04-25 16:49 39.26139 122.72894 1619 ft 175 kts 331°
2026-04-25 16:49 39.27249 122.72341 1569 ft 169 kts 326°
2026-04-25 16:50 39.28326 122.71713 1410 ft 171 kts 325°
2026-04-25 16:50 39.29378 122.71036 1186 ft 167 kts 324°
2026-04-25 16:50 39.30398 122.70396 1086 ft 164 kts 326°
2026-04-25 16:50 39.31316 122.69646 1160 ft 147 kts 297°
2026-04-25 16:51 39.31421 122.68410 1261 ft 139 kts 245°
2026-04-25 16:51 39.30943 122.67337 1363 ft 139 kts 237°
2026-04-25 16:51 39.30400 122.66304 1282 ft 144 kts 234°
2026-04-25 16:51 39.29983 122.65603 1105 ft 146 kts 230°
2026-04-25 16:52 39.28881 122.65110 1194 ft 143 kts 176°
2026-04-25 16:52 39.28006 122.65873 611 ft 166 kts 134°
2026-04-25 16:52 39.27142 122.66467 152 ft 127 kts 164°
2026-04-25 16:52 39.26440 122.66776 90 ft 86 kts 159°
2026-04-25 16:53 39.24853 122.67650 546 ft 148 kts 149°
2026-04-25 16:53 39.24314 122.68849 809 ft 176 kts 98°
2026-04-25 16:53 39.24607 122.70466 1120 ft 199 kts 69°
2026-04-25 16:54 39.25189 122.72161 1024 ft 204 kts 66°
2026-04-25 16:54 39.25832 122.73742 1093 ft 198 kts 50°
2026-04-25 16:54 39.26960 122.74577 1257 ft 178 kts 357°
2026-04-25 16:54 39.28093 122.74206 1707 ft 167 kts 315°
2026-04-25 16:55 39.29095 122.73391 1905 ft 184 kts 325°
2026-04-25 16:55 39.30289 122.72769 1911 ft 183 kts 328°
2026-04-25 16:55 39.31446 122.72134 1910 ft 180 kts 327°
2026-04-25 16:55 39.32428 122.71243 1876 ft 170 kts 305°
2026-04-25 16:56 39.33280 122.70126 1672 ft 175 kts 304°
2026-04-25 16:56 39.33972 122.68840 1421 ft 175 kts 292°
2026-04-25 16:56 39.34521 122.67424 1163 ft 177 kts 281°
2026-04-25 16:56 39.34744 122.65871 1031 ft 166 kts 273°
2026-04-25 16:57 39.34920 122.64546 1025 ft 142 kts 274°
2026-04-25 16:57 39.34960 122.63724 1020 ft 133 kts 254°
2026-04-25 16:57 39.34085 122.62679 1024 ft 138 kts 202°
2026-04-25 16:57 39.33123 122.62569 1019 ft 138 kts 193°
2026-04-25 16:58 39.32261 122.62124 1024 ft 133 kts 210°
2026-04-25 16:58 39.31346 122.62080 1033 ft 144 kts 159°
2026-04-25 16:58 39.30668 122.63077 1034 ft 149 kts 119°
2026-04-25 16:58 39.30354 122.64308 1054 ft 145 kts 120°
2026-04-25 16:59 39.29845 122.65266 965 ft 121 kts 153°
2026-04-25 16:59 39.29141 122.65730 733 ft 110 kts 166°
2026-04-25 16:59 39.28425 122.65984 475 ft 104 kts 169°
2026-04-25 16:59 39.27745 122.66227 285 ft 102 kts 165°
2026-04-25 17:00 39.27082 122.66492 100 ft 98 kts 161°
2026-04-25 17:00 39.26651 122.66678 83 ft 15 kts 169°
2026-04-25 17:00 39.26641 122.66679 81 ft 3 kts 182°
2026-04-25 17:00 39.26648 122.66698 82 ft 6 kts 344°
2026-04-25 17:01 39.26705 122.66648 70 ft 5 kts 305°
2026-04-25 17:01 39.26706 122.66605 72 ft 0 kts 250°
2026-04-25 17:02 39.26704 122.66599 76 ft 2 kts 249°
2026-04-25 17:02 39.26693 122.66570 77 ft 0 kts 233°
2026-04-25 17:02 39.26691 122.66568 77 ft 2 kts 225°
2026-04-25 17:02 39.26678 122.66562 73 ft 0 kts 189°
2026-04-25 17:06 39.26673 122.66556 84 ft 2 kts 236°
2026-04-25 17:06 39.26683 122.66541 84 ft 2 kts 346°
2026-04-25 17:06 39.26708 122.66595 76 ft 14 kts 73°
2026-04-25 17:06 39.26731 122.66639 75 ft 7 kts 29°
2026-04-25 17:07 39.26792 122.66625 70 ft 13 kts 340°
2026-04-25 17:07 39.26899 122.66577 66 ft 20 kts 340°
2026-04-25 17:07 39.26959 122.66550 59 ft 10 kts 342°
2026-04-25 17:07 39.26961 122.66528 56 ft 4 kts 210°
2026-04-25 17:08 39.26944 122.66541 59 ft 4 kts 139°
2026-04-25 17:08 39.26927 122.66553 62 ft 0 kts 160°
2026-04-25 17:09 39.26917 122.66558 63 ft 0 kts 160°
2026-04-25 17:11 39.26899 122.66566 66 ft 22 kts 160°
2026-04-25 17:11 39.26470 122.66763 88 ft 105 kts 161°
2026-04-25 17:12 39.25601 122.67156 303 ft 154 kts 162°
2026-04-25 17:12 39.24409 122.67705 545 ft 207 kts 163°
2026-04-25 17:12 39.22921 122.68364 950 ft 233 kts 166°
2026-04-25 17:12 39.21500 122.69094 1358 ft 211 kts 153°
2026-04-25 17:13 39.20673 122.70554 1716 ft 203 kts 110°
2026-04-25 17:13 39.20607 122.71133 1820 ft 199 kts 97°
2026-04-25 17:13 39.20726 122.73985 2402 ft 184 kts 88°
2026-04-25 17:13 39.21257 122.75465 2729 ft 186 kts 39°
2026-04-25 17:14 39.22435 122.76204 2556 ft 188 kts
2026-04-25 17:14 39.23639 122.76820 2311 ft 185 kts 21°
2026-04-25 17:14 39.24771 122.77545 2061 ft 179 kts 17°
2026-04-25 17:14 39.25947 122.77814 1806 ft 169 kts 351°
2026-04-25 17:15 39.27127 122.77842 1548 ft 167 kts 347°
2026-04-25 17:15 39.28167 122.77514 1538 ft 152 kts 332°
2026-04-25 17:15 39.29215 122.77111 1542 ft 159 kts 334°
2026-04-25 17:15 39.30278 122.76722 1541 ft 159 kts 333°
2026-04-25 17:16 39.31355 122.76340 1538 ft 162 kts 334°
2026-04-25 17:16 39.32441 122.75961 1545 ft 161 kts 334°
2026-04-25 17:16 39.33484 122.75523 1545 ft 155 kts 327°
2026-04-25 17:16 39.34504 122.75022 1546 ft 158 kts 330°
2026-04-25 17:17 39.35481 122.74448 1537 ft 146 kts 306°
2026-04-25 17:17 39.35743 122.73373 1542 ft 127 kts 249°
2026-04-25 17:17 39.35272 122.72449 1553 ft 118 kts 234°
2026-04-25 17:17 39.34838 122.71589 1540 ft 112 kts 237°
2026-04-25 17:18 39.34414 122.70764 1539 ft 109 kts 236°
2026-04-25 17:18 39.34002 122.69950 1538 ft 108 kts 236°
2026-04-25 17:18 39.33588 122.69144 1535 ft 108 kts 236°
2026-04-25 17:18 39.33178 122.68335 1533 ft 108 kts 236°
2026-04-25 17:19 39.32767 122.67525 1538 ft 106 kts 236°
2026-04-25 17:19 39.32264 122.66829 1541 ft 109 kts 208°
2026-04-25 17:19 39.31474 122.67038 1549 ft 127 kts 163°
2026-04-25 17:19 39.30759 122.67132 1510 ft 91 kts 219°
2026-04-25 17:20 39.30331 122.66533 1535 ft 94 kts 219°
2026-04-25 17:20 39.29688 122.66247 1309 ft 101 kts 203°
2026-04-25 17:20 39.29008 122.66037 937 ft 103 kts 197°
2026-04-25 17:20 39.28272 122.66073 570 ft 110 kts 173°
2026-04-25 17:21 39.27553 122.66323 260 ft 102 kts 167°
2026-04-25 17:21 39.26921 122.66607 65 ft 76 kts 132°
2026-04-25 17:21 39.26742 122.66683 68 ft 13 kts 206°
2026-04-25 17:21 39.26707 122.66604 68 ft 11 kts 246°
2026-04-25 17:22 39.26695 122.66568 77 ft 0 kts 246°